Location: Thunder Bay
(48.4000°N, 89.2330°W)
Time: 21:59:16
(UTC-04:00)

ISS - Pass Details

Date: 01 July 2021
Orbit: 419 x 421 km, 51.6° (Epoch: 02 August)

Event Time Altitude Azimuth Distance (km) Brightness Sun altitude
Exits shadow 04:31:09 17° 202° (SSW) 1,136 -2.2 -11.0°
Maximum altitude 04:33:13 34° 145° (SE) 715 -2.8 -10.8°
Drops below altitude 10° 04:36:18 10° 79° (E) 1,503 -0.2 -10.5°
Sets 04:38:30 0° 70° (ENE) 2,369 1.1 -10.3°
